This is the latest recevied weather packets stored in our database for station/object KF0TNT. If no packets are shown the sender has not sent any weather packets the latest 10 day(s).
| Time | Temp. | Humidity | Pressure | Rain* | Wind** | Luminosity | Snow |
|---|---|---|---|---|---|---|---|
| 1777892474 | 6.67° C | 43% | 1014 hPa | 0 mm | - | 0 W/m² | - |
| 1777892170 | 6.67° C | 43% | 1014.1 hPa | 0 mm | - | 0 W/m² | - |
| 1777891866 | 6.67° C | 42% | 1014 hPa | 0 mm | - | 0 W/m² | - |
| 1777891564 | 6.67° C | 43% | 1014 hPa | 0 mm | - | 0 W/m² | - |
| 1777891260 | 6.67° C | 43% | 1013.9 hPa | 0 mm | - | 0 W/m² | - |
| 1777890960 | 6.67° C | 43% | 1013.9 hPa | 0 mm | - | 0 W/m² | - |
| 1777890655 | 6.67° C | 43% | 1014 hPa | 0 mm | - | 0 W/m² | - |
| 1777890350 | 6.11° C | 44% | 1014.1 hPa | 0 mm | - | 0 W/m² | - |
| 1777890047 | 5.56° C | 46% | 1014.3 hPa | 0 mm | - | 0 W/m² | - |
| 1777889745 | 5.56° C | 47% | 1014.1 hPa | 0 mm | - | 0 W/m² | - |
| 1777889442 | 6.11° C | 46% | 1014.3 hPa | 0 mm | - | 0 W/m² | - |
| 1777889139 | 6.11° C | 46% | 1014.3 hPa | 0 mm | - | 0 W/m² | - |
| 1777888837 | 6.11° C | 46% | 1014 hPa | 0 mm | - | 0 W/m² | - |
| 1777888533 | 6.11° C | 45% | 1014 hPa | 0 mm | - | 0 W/m² | - |
| 1777888229 | 6.11° C | 44% | 1014.3 hPa | 0 mm | - | 0 W/m² | - |
| 1777887927 | 6.67° C | 44% | 1014.4 hPa | 0 mm | - | 0 W/m² | - |
| 1777887624 | 6.67° C | 43% | 1014.1 hPa | 0 mm | - | 0 W/m² | - |
| 1777887320 | 6.67° C | 42% | 1014.1 hPa | 0 mm | - | 0 W/m² | - |
| 1777887015 | 6.67° C | 43% | 1014.1 hPa | 0 mm | - | 0 W/m² | - |
| 1777886711 | 6.67° C | 43% | 1014.4 hPa | 0 mm | - | 0 W/m² | - |
| 1777886409 | 6.67° C | 41% | 1014.4 hPa | 0 mm | - | 0 W/m² | - |
| 1777886107 | 6.67° C | 42% | 1014.5 hPa | 0 mm | - | 0 W/m² | - |
| 1777885804 | 7.22° C | 43% | 1014.5 hPa | 0 mm | - | 0 W/m² | - |
| 1777885502 | 7.22° C | 40% | 1014.4 hPa | 0 mm | - | 0 W/m² | - |
| 1777885200 | 6.67° C | 41% | 1014.4 hPa | 0 mm | - | 0 W/m² | - |
* Rain latest hour (hover to see other rain measurements)
** Current wind speed in m/s (hover to see current wind gust speed)